STARLINK-31110 (58679 NORAD) Tracking and Keplerian Element Data

This shows tracking and keplerian element data for the satellite.

Feedback or suggestion? Click here.




ElementValue
Catalog58679
NameSTARLINK-31110
Epoch Orbit348
Epoch Day12.91667824
Epoch Year2024
RAAN204.0958
Inclination42.9998
Eccentricity0.0001509
Argument of Perigee258.228
Mean Anonmoly339.5817
Mean Motion15.7405325
Decay Rate-0.01673252
L11 58679U 23211N 24012.91667824 -.01673252 00000+0 -12845-1 0 9994
L22 58679 42.9998 204.0958 0001509 258.2280 339.5817 15.74053250 3481



Live tracking and technical data element details for STARLINK-31110 (NORAD 58679). STARLINK-31110 can be tracked NOW for your location showing map with azimuth and elevation plus other details from your city location.







IsCatalogInMostPopularTable: catalog: 58679, numindb: 22
Update: records affected: 1



GetName: 58679 STARLINK-31110

Hit Count: updated at: Wed, 17 Apr 2024 02:48:46 GMT